Preview of NWS' New Version of Forecast
This preview is not operational and should not be used for support decisions.

Regional Weather Roundup (RWR)

Issued by National Weather Service (NWS)

                            
000
ASUS42 KTBW 182117
RWRFL 
FLORIDA REGIONAL WEATHER ROUNDUP
NATIONAL WEATHER SERVICE TAMPA BAY RUSKIN FL
500 PM EDT MON MAR 18 2019

NOTE: "FAIR" INDICATES FEW OR NO CLOUDS BELOW 12,000 FEET WITH NO
SIGNIFICANT WEATHER AND/OR OBSTRUCTIONS TO VISIBILITY.

FLZ001>010-012>015-112-114-115-182200-
PANHANDLE FLORIDA
  
CITY           SKY/WX    TMP DP  RH WIND       PRES   REMARKS
PENSACOLA      FAIR      65  32  29 N12       30.20F                  
PENSACOLA NAS  PTSUNNY   65  33  30 NE13      30.20F                  
MILTON NAS     CLOUDY    65  36  34 VRB3      30.19F                  
CRESTVIEW      FAIR      66  30  26 N8        30.20F                  
DUKE FIELD     FAIR      65  29  26 N7        30.18F                  
VALPARAISO     FAIR      66  30  26 NE13      30.17F                  
MARY ESTHER    MOSUNNY   66  26  22 NE12      30.18F                  
PANAMA CITY    FAIR      65  34  31 N6        30.16F                  
TYNDALL AFB    FAIR      66  32  28 NE9       30.15F                  
APALACHICOLA   FAIR      65  33  30 NE9       30.16F                  

STATION/POSITION SKY/WX   TEMP    WIND        PRES    WAVE   SWELL
                          AIR SEA DIR/SP/G            HT/PER HT/PER
                          (F)     (DEG/KT/KT) (MB)    (FT/S) (FT/S)
30.1N   87.6W                                 1023.3R   3/ 5
29.2N   88.2W                      40/ 16/ 21 1022.9R   6/ 6   2/11
PANAMA CITY BEAC           65 65   30/  9/ 14 1021.9F
TOWER C                    63      30/ 17/ 18 1020.7F

$$
FLZ011-016>038-118-127-128-134-139-239-182200-
NORTH FLORIDA
  
CITY           SKY/WX    TMP DP  RH WIND       PRES   REMARKS
MARIANNA       FAIR      65  29  25 NE10      30.17F                  
TALLAHASSEE    CLOUDY    66  33  29 N9        30.16S                  
PERRY          FAIR      67  32  27 N8        30.17R                  
LIVE OAK       SUNNY     66  34  30 N6        30.16R                  
CROSS CITY     FAIR      67  34  29 N13       30.14S                  
LAKE CITY      FAIR      64  34  32 NE10      30.15R                  
GAINESVILLE    FAIR      70  34  26 N12       30.14S                  
WILLISTON        N/A    N/A N/A N/A MISG        N/A                   
PALATKA        FAIR      66  37  34 N10       30.13S                  
MAYPORT NAS    CLOUDY    63  39  41 NE10      30.13F                  
JACKSONVILLE   CLOUDY    65  34  31 E7        30.13F                  
JAX NAS        PTSUNNY   67  30  25 N8        30.14F                  
JAX CECIL      SUNNY    N/A N/A N/A N9        30.13F                  
FERNANDINA BEA FAIR      63  35  34 NE10      30.13F                  
PALM COAST     SUNNY     63  46  55 N15G23    30.12F                  

STATION/POSITION SKY/WX   TEMP    WIND        PRES    WAVE   SWELL
                          AIR SEA DIR/SP/G            HT/PER HT/PER
                          (F)     (DEG/KT/KT) (MB)    (FT/S) (FT/S)
SHELL POINT      NOT AVBL
KEATON BEACH               65      20/  8/ 11 1021.2R
CEDAR KEY                  67      30/  8/ 11 1019.9F
FERNANDINA                         90/  4/  7   N/A
30.7N   81.3W                 63                N/A     4/ 6
MAYPORT                    62 64   50/ 10/ 12 1020.5F
31.4N   80.9W              61 63  110/  6/  6 1020.3F   3/ 8   3/ 8
ST AUGUSTINE               61 64  360/ 17/ 19 1020.3F

$$
FLZ040-043>046-052-053-057-058-063-144-182200-
INTERIOR CENTRAL FLORIDA
  
CITY           SKY/WX    TMP DP  RH WIND       PRES   REMARKS
OCALA          FAIR      68  43  40 NE9       30.11S                  
LEESBURG       PTSUNNY   70  47  43 NE14      30.09S                  
SANFORD        CLOUDY    65  49  56 NE14      30.09S                  
ORLANDO EXEC   CLOUDY    64  50  60 NE15      30.09S                  
ORLANDO INTL   CLOUDY    61  53  75 NE10      30.10R                  
KISSIMMEE      CLOUDY    62  54  74 NE7       30.10S                  
WINTER HAVEN   CLOUDY    65  53  65 NE8       30.09S                  
LAKELAND       CLOUDY    66  54  63 NE13      30.08R                  
BARTOW         CLOUDY    66  54  63 NE12      30.08R                  
SEBRING        MOCLDY    69  58  67 NE16      30.05S                  
OKEECHOBEE     CLOUDY    70  61  73 CALM      30.03R                  

$$
FLZ041-047-054-059-064-141-147-182200-
EAST CENTRAL FLORIDA
  
CITY           SKY/WX    TMP DP  RH WIND       PRES   REMARKS
ORMOND BEACH   MOSUNNY   64  50  59 N20G28    30.11F                  
DAYTONA BEACH  CLOUDY    64  51  62 N18G24    30.11S                  
DELAND         CLOUDY    64  48  55 NE15      30.09F                  
NEW SMYRNA BEA PTSUNNY   64  50  59 N14G22    30.11S                  
JFK SPACE CTR  CLOUDY    63  55  77 N9        30.07S                  
TITUSVILLE     PTSUNNY   66  55  68 N17G23    30.09R                  
CAPE CANAVERAL PTSUNNY   66  57  73 N14G26    30.06S                  
PATRICK AFB    CLOUDY    66  59  80 N18G24    30.06S                  
MELBOURNE      CLOUDY    66  57  72 N17       30.05S                  
VERO BEACH     CLOUDY    69  60  73 N18G28    30.04R                  
FT PIERCE      PTSUNNY   68  60  75 N13G24    30.03R                  
STUART         PTSUNNY   68  63  83 N14G23    30.02S                  

STATION/POSITION SKY/WX   TEMP    WIND        PRES    WAVE   SWELL
                          AIR SEA DIR/SP/G            HT/PER HT/PER
                          (F)     (DEG/KT/KT) (MB)    (FT/S) (FT/S)
28.5N   80.2W              69      10/ 17/ 21 1017.7F   5/ 8   3/ 8
28.9N   78.5W              70 74   10/ 17/ 21 1016.8F   6/ 8   3/ 8
TRIDENT PIER               65 68  360/ 16/ 21 1019.1F
28.4N   80.5W                 68                N/A     3/ 7
27.5N   80.2W                 69                N/A     6/ 5   2/11

$$
FLZ050-056-061-142-242-148-248-149-249-151-251-155-255-
160-260-182200-
WEST CENTRAL FLORIDA
  
CITY           SKY/WX    TMP DP  RH WIND       PRES   REMARKS
CRYSTAL RIVER  FAIR      70  43  37 NE9       30.09F                  
INVERNESS      FAIR      72  48  43 N8        30.08F                  
BROOKSVILLE    FAIR      73  51  46 NE10      30.07F                  
CLEARWATER AIR FAIR      70  52  52 NE7       30.05F                  
ST PETE CLEARW FAIR      70  55  59 N8        30.05F                  
TAMPA INTL     CLOUDY    72  54  53 NE7       30.05F                  
TAMPA EXEC     PTSUNNY   70  55  60 NE6       30.06F                  
PLANT CITY     CLOUDY    70  54  56 NE12G23   30.08S                  
MACDILL AFB    CLOUDY    71  55  56 NE6       30.04F                  
PETER O KNIGHT CLOUDY    72  57  60 NE9       30.05F                  
ST PETERSBURG  PTSUNNY   71  57  61 N10       30.03F                  
SARASOTA       PTSUNNY   72  58  61 NE7       30.02F                  
VENICE         FAIR      77  61  57 NE14G20   30.03F                  

STATION/POSITION SKY/WX   TEMP    WIND        PRES    WAVE   SWELL
                          AIR SEA DIR/SP/G            HT/PER HT/PER
                          (F)     (DEG/KT/KT) (MB)    (FT/S) (FT/S)
27.3N   84.2W                 73                N/A     5/ 7
CLEARWATER BEACH           68 73  350/ 16/ 18 1017.8F
MIDDLE TAMPA BAY           70      20/  9/ 12 1017.7F
VENICE                     71 73   30/  9/ 11 1017.0F

$$
FLZ066-069-070-075>078-162-262-165-265-182200-
SOUTHWEST FLORIDA AND KEYS
  
CITY           SKY/WX    TMP DP  RH WIND       PRES   REMARKS
PUNTA GORDA    PTSUNNY   72  60  66 N12       30.04F                  
FT MYERS       PTSUNNY   74  60  61 N10       30.00F                  
SOUTHWEST INTL PTSUNNY   74  61  63 N10       30.01S                  
NAPLES         CLOUDY    75  63  66 N5        29.99F                  
MARCO ISLAND   CLOUDY    76  64  66 NE8       30.00F                  
IMMOKALEE      PTSUNNY   75  63  64 N10       29.99S                  
MARATHON       PTSUNNY   82  67  60 N6        29.97S                  
KEY WEST NAS   PTSUNNY   78  68  71 N10       29.98F                  
KEY WEST INTL  FAIR      78  69  73 N9        29.98F                  

STATION/POSITION SKY/WX   TEMP    WIND        PRES    WAVE   SWELL
                          AIR SEA DIR/SP/G            HT/PER HT/PER
                          (F)     (DEG/KT/KT) (MB)    (FT/S) (FT/S)
NAPLES                     74 77   30/  8/  9 1015.7F
26.0N   85.6W              69 80   30/ 19/ 23 1016.6F   4/ 6
DRY TORTUGAS               72      50/ 19/ 22 1015.1F
SAND KEY                   73                 1015.0F
SOMBRERO KEY               76                 1014.3F

$$
FLZ067-068-071>074-168-172>174-182200-
SOUTHEAST FLORIDA 
  
CITY           SKY/WX    TMP DP  RH WIND       PRES   REMARKS
W PALM BEACH   PTSUNNY   74  64  71 N14       29.99S                  
BOCA RATON     PTSUNNY   75  66  73 NE13      29.98F                  
FT LAUDER-EXEC PTSUNNY   79  66  64 N7        29.97F                  
FT LAUDERDALE  CLOUDY    78  65  63 N9        29.96F                  
POMPANO BEACH  PTSUNNY   78  65  63 NE14      29.97F                  
PEMBROKE PINES PTSUNNY   79  63  57 N8        29.98F                  
OPA LOCKA      PTSUNNY   78  64  61 N8        29.98S                  
MIAMI          CLOUDY    78  65  63 N7        29.98S                  
WEST KENDALL   PTSUNNY   79  63  57 N8        29.98R                  
HOMESTEAD      CLOUDY    76  68  78 CALM      29.97R                  

STATION/POSITION SKY/WX   TEMP    WIND        PRES    WAVE   SWELL
                          AIR SEA DIR/SP/G            HT/PER HT/PER
                          (F)     (DEG/KT/KT) (MB)    (FT/S) (FT/S)
PORT EVERGLADES            76      30/  6/ 11 1015.1
VIRGINIA KEY               76 79   30/  6/  8 1014.4F
LAKE WORTH                 73 78   10/ 18/ 21 1016.4F
FOWEY ROCKS                74 78   30/ 11/ 12 1015.6F
SETTLEMENT POINT           72      30/  6/  7 1015.4F

$$